Location: Cucq
(50.4773°N, 1.6202°E)
Time: 09:39:27
(UTC+00:00)

Cosmos 1975 - Pass Details

Date: 07 August 2020
Orbit: 542 x 561 km, 82.5° (Epoch: 21 September)

Event Time Altitude Azimuth Distance (km) Brightness Sun altitude
Exits shadow 00:44:37 58° 276° (W) 645 3.0 -22.4°
Maximum altitude 00:44:42 58° 283° (WNW) 644 3.0 -22.4°
Drops below altitude 10° 00:48:42 10° 3° (N) 1,840 6.6 -22.3°
Sets 00:50:55 0° 8° (N) 2,743 7.9 -22.2°
